This demonstration page uses our WeatherBlox Daily Observations layout. Learn more.

Left ArrowRight Arrow

38.89511, -77.03637

Hourly Observations for August 11, 2022

Temp ( °F °C ) Dew Point ( °F °C ) Humidity (%) Winds ( mph kmh ) Pressure ( in mb ) Visibility ( mi km ) Precip ( " mm )
12:52 am 00:52 Cloudy 73 22.8 71 21.7 94 94 SSW 8 13 30.01 1016 10 16 0.00 0.00
1:38 am 01:38 Cloudy 74 23.3 71 21.7 91 91 Calm 29.99 1016 10 16 0.00 0.00
1:52 am 01:52 Cloudy 74 23.3 71 21.7 91 91 Calm 29.98 1015 10 16 0.00 0.00
2:52 am 02:52 Cloudy 75 23.9 71 21.7 88 88 Calm 29.97 1015 10 16 0.00 0.00
4:14 am 04:14 Cloudy 74 23.3 72 22.2 94 94 SW 7 11 29.98 1015 10 16 0.00 0.00
4:52 am 04:52 Cloudy 74 23.3 72 22.2 94 94 SW 6 9 29.97 1015 10 16 0.00 0.00
5:34 am 05:34 Cloudy 74 23.3 71 21.7 91 91 SW 7 11 29.97 1015 10 16 0.00 0.00
5:52 am 05:52 Cloudy 74 23.3 71 21.7 91 91 WSW 6 9 29.96 1015 10 16 0.00 0.00
5:59 am 05:59 Cloudy 74 23.3 71 21.7 91 91 WSW 6 9 29.97 1015 10 16 0.00 0.00
6:52 am 06:52 Cloudy 75 23.9 71 21.7 88 88 W 5 7 29.97 1015 10 16 0.00 0.00
7:52 am 07:52 Cloudy 76 24.4 71 21.7 85 85 NW 12 19 29.98 1015 10 16 0.00 0.00
8:52 am 08:52 Cloudy 75 23.9 68 20 79 79 N 12 19 29.98 1015 10 16 0.00 0.00
9:52 am 09:52 Mostly Cloudy 77 25 67 19.4 71 71 NNW 9 15 29.98 1015 10 16 0.00 0.00
10:52 am 10:52 Mostly Cloudy 79 26.1 68 20 69 69 NW 12 19 29.98 1015 10 16 0.00 0.00
11:52 am 11:52 Mostly Cloudy 82 27.8 62 16.7 51 51 NW 14 22 29.98 1015 10 16 0.00 0.00
12:52 pm 12:52 Mostly Cloudy 83 28.3 63 17.2 51 51 NNW 15 24 29.97 1015 10 16 0.00 0.00
1:52 pm 13:52 Mostly Cloudy 85 29.4 64 17.8 50 50 NW 10 17 29.96 1014 10 16 0.00 0.00
2:52 pm 14:52 Partly Cloudy 86 30 62 16.7 45 45 W 13 20 29.94 1014 10 16 0.00 0.00
3:52 pm 15:52 Partly Cloudy 86 30 60 15.6 42 42 NW 9 15 29.93 1014 10 16 0.00 0.00
4:52 pm 16:52 Partly Cloudy 87 30.6 61 16.1 42 42 WNW 10 17 29.92 1013 10 16 0.00 0.00
5:52 pm 17:52 Partly Cloudy 86 30 62 16.7 45 45 WNW 9 15 29.92 1013 10 16 0.00 0.00
6:52 pm 18:52 Partly Cloudy 85 29.4 63 17.2 48 48 NNW 10 17 29.91 1013 10 16 0.00 0.00
7:52 pm 19:52 Partly Cloudy 84 28.9 62 16.7 48 48 WNW 8 13 29.92 1013 10 16 0.00 0.00
8:52 pm 20:52 Partly Cloudy 82 27.8 63 17.2 53 53 WNW 6 9 29.94 1014 10 16 0.00 0.00
9:52 pm 21:52 Partly Cloudy 82 27.8 63 17.2 53 53 W 5 7 29.95 1014 10 16 0.00 0.00
10:52 pm 22:52 Cloudy 80 26.7 62 16.7 54 54 NW 12 19 29.95 1014 10 16 0.00 0.00
11:52 pm 23:52 Cloudy 77 25 62 16.7 60 60 NNW 9 15 29.96 1015 10 16 0.00 0.00

Powered by AerisWeather